Jefferson City, MO

6:12 PM CDT on July 21, 2017 (GMT -0500)
Jefferson City Memorial

Weather History for KJEF - July, 2013

Change the Weather History Date:

Saturday, July 27, 2013

  Actual Average Record
Temperature  
Mean Temperature 67 °F -  
Max Temperature 75 °F 89 °F 107 °F (1936)
Min Temperature 57 °F 66 °F 43 °F (1962)
Cooling Degree Days 2    
Growing Degree Days 17 (Base 50)    
Moisture  
Dew Point 54 °F    
Average Humidity 65    
Maximum Humidity 90    
Minimum Humidity 38    
Precipitation  
Precipitation 0.00 in - - ()
Sea Level Pressure  
Sea Level Pressure 29.98 in    
Wind  
Wind Speed 5 mph (NW)    
Max Wind Speed 13 mph    
Max Gust Speed 20 mph    
Visibility 10 miles    
Events      
Averages and records for this station are not official NWS values.
T = Trace of Precipitation, MM = Missing Value Source: NWS Daily Summary

Daily Weather History Graph

Daily Weather History Graph

Search for Another Location

Airport or City:

Trip Planner

Search our weather history database for the weather conditions in past years. The results will help you decide how hot, cold, wet, or windy it might be!

Date:

Astronomy

Jul. 27, 2013 Rise Set
Actual Time 6:06 AM CDT 8:23 PM CDT
Civil Twilight 5:36 AM CDT 8:53 PM CDT
Nautical Twilight 4:59 AM CDT 9:30 PM CDT
Astronomical Twilight 4:18 AM CDT 10:10 PM CDT
Moon 11:16 PM CDT (7/27) 11:42 AM CDT (7/27)
Length of Visible Light 15h 17m
Length of Day
14h 17m
Waning Gibbous, 70% of the Moon is Illuminated
Jul 27
Waning Gibbous
Jul 29
Last Quarter
Aug 6
New
Aug 14
First Quarter
Aug 20
Full

Hourly Weather History & Observations

Time (CDT) Temp. Dew Point Humidity Pressure Visibility Wind Dir Wind Speed Gust Speed Precip Events Conditions
12:53 AM 71.1 °F 66.9 °F 87% 29.96 in 10.0 mi North 3.5 mph - 0.00 in   Mostly Cloudy
1:53 AM 66.9 °F 59.0 °F 76% 29.97 in 10.0 mi North 6.9 mph - N/A   Mostly Cloudy
2:53 AM 64.9 °F 57.9 °F 78% 29.98 in 10.0 mi WNW 4.6 mph - N/A   Clear
3:53 AM 63.0 °F 57.9 °F 84% 29.98 in 10.0 mi Calm Calm - N/A   Clear
4:53 AM 62.1 °F 57.0 °F 84% 29.99 in 10.0 mi Calm Calm - N/A   Clear
5:53 AM 59.0 °F 55.9 °F 90% 30.00 in 10.0 mi Calm Calm - N/A   Clear
6:53 AM 60.1 °F 55.9 °F 86% 30.00 in 10.0 mi NW 3.5 mph - N/A   Clear
7:53 AM 63.0 °F 55.9 °F 78% 30.02 in 10.0 mi WNW 5.8 mph - N/A   Clear
8:53 AM 66.0 °F 55.9 °F 70% 30.03 in 10.0 mi NW 5.8 mph - N/A   Clear
9:53 AM 69.1 °F 55.0 °F 61% 30.03 in 10.0 mi Variable 5.8 mph - N/A   Clear
10:53 AM 70.0 °F 53.1 °F 55% 30.02 in 10.0 mi NW 10.4 mph - N/A   Clear
11:53 AM 71.1 °F 51.1 °F 49% 30.01 in 10.0 mi NW 9.2 mph - N/A   Mostly Cloudy
12:53 PM 73.0 °F 51.1 °F 46% 30.00 in 10.0 mi NW 8.1 mph - N/A   Mostly Cloudy
1:53 PM 73.9 °F 51.1 °F 45% 29.98 in 10.0 mi Variable 4.6 mph - N/A   Scattered Clouds
2:53 PM 75.0 °F 50.0 °F 41% 29.96 in 10.0 mi WNW 12.7 mph 19.6 mph N/A   Clear
3:53 PM 75.0 °F 48.9 °F 40% 29.96 in 10.0 mi WNW 9.2 mph - N/A   Clear
4:53 PM 75.0 °F 48.9 °F 40% 29.96 in 10.0 mi NW 9.2 mph 19.6 mph N/A   Partly Cloudy
5:53 PM 75.0 °F 48.0 °F 38% 29.95 in 10.0 mi WNW 11.5 mph 18.4 mph N/A   Clear
6:53 PM 73.9 °F 48.0 °F 40% 29.95 in 10.0 mi WNW 6.9 mph - N/A   Clear
7:53 PM 72.0 °F 48.9 °F 44% 29.95 in 10.0 mi Calm Calm - N/A   Clear
8:53 PM 64.0 °F 55.9 °F 75% 29.95 in 10.0 mi Calm Calm - N/A   Clear
9:53 PM 62.1 °F 55.0 °F 78% 29.97 in 10.0 mi Calm Calm - N/A   Clear
10:53 PM 61.0 °F 55.0 °F 81% 29.97 in 10.0 mi Calm Calm - N/A   Clear
11:53 PM 57.9 °F 54.0 °F 87% 29.97 in 10.0 mi Calm Calm - N/A   Clear